Powrót do katalogu

STARLINK-32422

AktywnyŁącznośćVLEO
NORAD 61592·PAYLOAD·🇺🇸 United States

Wystrzelony Oct 18, 2024 z Cape Canaveral Space Force Station

Loading…

Następne Przeloty (najbliższe 24 godziny)

TLE

ŚwieżeSource: CelesTrak SupGP

Epoka: Sep 14, 2026, 20:56 UTC

1 61592C 24187U   26257.87270833  .00046457  00000+0  13727-2 0  2579
2 61592  53.1575 247.8134 0001346  94.1559  84.5679 15.34363738    10

Śledź STARLINK-32422 w czasie rzeczywistym z AllMySat

Download on the App Store